Time,TemperatureF,DewpointF,PressureIn,WindDirection,WindDirectionDegrees,WindSpeedMPH,WindSpeedGustMPH,Humidity,HourlyPrecipIn,Conditions,Clouds,dailyrainin,SoftwareType,DateUTC
2013-03-18 00:00:00,26.5,11.1,30.17,NNW,338,0.2,1.3,52,0.00,,,0.00,WUHU216HW,2013-03-18 04:00:00,
2013-03-18 00:05:00,26.3,11.0,30.17,NNW,338,0.7,1.3,52,0.00,,,0.00,WUHU216HW,2013-03-18 04:05:00,
2013-03-18 00:10:00,26.1,11.2,30.18,NNW,338,0.4,0.9,53,0.00,,,0.00,WUHU216HW,2013-03-18 04:10:00,
2013-03-18 00:15:00,25.7,10.9,30.18,NNW,338,1.1,1.1,53,0.00,,,0.00,WUHU216HW,2013-03-18 04:15:00,
2013-03-18 00:20:00,25.7,10.9,30.17,NNW,338,1.8,2.0,53,0.00,,,0.00,WUHU216HW,2013-03-18 04:20:00,
2013-03-18 00:25:00,25.7,10.9,30.18,NE,45,2.0,2.0,53,0.00,,,0.00,WUHU216HW,2013-03-18 04:25:00,
2013-03-18 00:30:00,25.6,10.7,30.18,ENE,68,0.7,2.0,53,0.00,,,0.00,WUHU216HW,2013-03-18 04:30:00,
2013-03-18 00:35:00,25.4,10.5,30.18,North,0,0.4,1.1,53,0.00,,,0.00,WUHU216HW,2013-03-18 04:35:00,
2013-03-18 00:40:00,25.6,10.7,30.18,NNW,338,1.6,1.6,53,0.00,,,0.00,WUHU216HW,2013-03-18 04:40:00,
2013-03-18 00:45:00,25.7,10.9,30.19,NNE,23,0.7,2.2,53,0.00,,,0.00,WUHU216HW,2013-03-18 04:45:00,
2013-03-18 00:50:00,25.9,11.1,30.19,NNW,338,0.9,2.2,53,0.00,,,0.00,WUHU216HW,2013-03-18 04:50:00,
2013-03-18 00:55:00,25.9,11.1,30.19,NNW,338,0.2,1.8,53,0.00,,,0.00,WUHU216HW,2013-03-18 04:55:00,
2013-03-18 01:00:00,25.7,10.9,30.19,North,0,2.2,2.2,53,0.00,,,0.00,WUHU216HW,2013-03-18 05:00:00,
2013-03-18 01:05:00,25.7,10.4,30.19,NNW,338,0.0,2.5,52,0.00,,,0.00,WUHU216HW,2013-03-18 05:05:00,
2013-03-18 01:10:00,25.6,10.7,30.19,NE,45,0.2,2.5,53,0.00,,,0.00,WUHU216HW,2013-03-18 05:10:00,
2013-03-18 01:15:00,25.0,9.8,30.20,NE,45,0.7,1.6,52,0.00,,,0.00,WUHU216HW,2013-03-18 05:15:00,
2013-03-18 01:20:00,25.0,10.3,30.19,NNW,338,1.1,1.1,53,0.00,,,0.00,WUHU216HW,2013-03-18 05:20:00,
2013-03-18 01:25:00,25.0,10.3,30.19,North,0,0.7,1.1,53,0.00,,,0.00,WUHU216HW,2013-03-18 05:25:00,
2013-03-18 01:31:00,24.8,10.1,30.19,East,90,0.9,2.2,53,0.00,,,0.00,WUHU216HW,2013-03-18 05:31:00,
2013-03-18 01:36:00,24.7,10.4,30.20,NNW,338,1.1,2.2,54,0.00,,,0.00,WUHU216HW,2013-03-18 05:36:00,
2013-03-18 01:41:00,24.7,10.4,30.19,NNW,338,0.0,1.6,54,0.00,,,0.00,WUHU216HW,2013-03-18 05:41:00,
2013-03-18 01:46:00,24.7,10.4,30.20,ENE,68,0.7,1.8,54,0.00,,,0.00,WUHU216HW,2013-03-18 05:46:00,
2013-03-18 01:51:00,24.5,10.2,30.19,NW,315,1.1,1.8,54,0.00,,,0.00,WUHU216HW,2013-03-18 05:51:00,
2013-03-18 01:56:00,24.7,10.4,30.19,North,0,0.7,1.8,54,0.00,,,0.00,WUHU216HW,2013-03-18 05:56:00,
2013-03-18 02:01:00,24.5,10.2,30.20,NNW,338,0.7,1.3,54,0.00,,,0.00,WUHU216HW,2013-03-18 06:01:00,
2013-03-18 02:06:00,24.5,10.2,30.20,NNE,23,1.1,1.1,54,0.00,,,0.00,WUHU216HW,2013-03-18 06:06:00,
2013-03-18 02:11:00,24.5,10.2,30.20,North,0,1.8,1.8,54,0.00,,,0.00,WUHU216HW,2013-03-18 06:11:00,
2013-03-18 02:16:00,24.3,10.0,30.20,West,270,1.6,1.8,54,0.00,,,0.00,WUHU216HW,2013-03-18 06:16:00,
2013-03-18 02:21:00,23.9,9.6,30.20,WNW,293,1.1,1.6,54,0.00,,,0.00,WUHU216HW,2013-03-18 06:21:00,
2013-03-18 02:26:00,23.9,10.1,30.20,NNW,338,0.0,1.1,55,0.00,,,0.00,WUHU216HW,2013-03-18 06:26:00,
2013-03-18 02:31:00,23.9,10.1,30.21,NW,315,0.0,0.7,55,0.00,,,0.00,WUHU216HW,2013-03-18 06:31:00,
2013-03-18 02:37:00,23.6,10.1,30.21,NW,315,0.7,1.3,56,0.00,,,0.00,WUHU216HW,2013-03-18 06:37:00,
2013-03-18 02:42:00,23.6,10.1,30.21,NNW,338,0.4,1.3,56,0.00,,,0.00,WUHU216HW,2013-03-18 06:42:00,
2013-03-18 02:47:00,23.6,10.1,30.22,NNW,338,0.0,0.9,56,0.00,,,0.00,WUHU216HW,2013-03-18 06:47:00,
2013-03-18 02:52:00,23.4,9.9,30.22,North,0,0.0,2.7,56,0.00,,,0.00,WUHU216HW,2013-03-18 06:52:00,
2013-03-18 02:57:00,23.4,9.9,30.21,North,0,0.0,2.7,56,0.00,,,0.00,WUHU216HW,2013-03-18 06:57:00,
2013-03-18 03:02:00,23.0,9.5,30.22,ENE,68,0.2,1.8,56,0.00,,,0.00,WUHU216HW,2013-03-18 07:02:00,
2013-03-18 03:07:00,22.7,9.3,30.22,NNE,23,1.1,1.8,56,0.00,,,0.00,WUHU216HW,2013-03-18 07:07:00,
2013-03-18 03:12:00,22.9,9.5,30.22,NW,315,0.0,1.3,56,0.00,,,0.00,WUHU216HW,2013-03-18 07:12:00,
2013-03-18 03:17:00,22.7,9.3,30.22,NW,315,0.0,1.3,56,0.00,,,0.00,WUHU216HW,2013-03-18 07:17:00,
2013-03-18 03:22:00,22.3,8.9,30.22,NW,315,0.0,0.4,56,0.00,,,0.00,WUHU216HW,2013-03-18 07:22:00,
2013-03-18 03:27:00,22.1,9.1,30.22,NW,315,0.0,1.1,57,0.00,,,0.00,WUHU216HW,2013-03-18 07:27:00,
2013-03-18 03:32:00,22.0,9.0,30.22,NW,315,0.2,1.1,57,0.00,,,0.00,WUHU216HW,2013-03-18 07:32:00,
2013-03-18 03:37:00,22.0,9.0,30.22,NW,315,0.4,0.7,57,0.00,,,0.00,WUHU216HW,2013-03-18 07:37:00,
2013-03-18 03:42:00,21.8,9.2,30.22,NW,315,0.4,0.4,58,0.00,,,0.00,WUHU216HW,2013-03-18 07:42:00,
2013-03-18 03:47:00,22.0,9.4,30.22,NNW,338,0.0,0.9,58,0.00,,,0.00,WUHU216HW,2013-03-18 07:47:00,
2013-03-18 03:52:00,22.0,9.4,30.22,NNW,338,0.0,0.9,58,0.00,,,0.00,WUHU216HW,2013-03-18 07:52:00,
2013-03-18 03:57:00,21.8,9.2,30.22,NNW,338,0.7,0.7,58,0.00,,,0.00,WUHU216HW,2013-03-18 07:57:00,
2013-03-18 04:02:00,21.4,9.3,30.22,NNW,338,0.7,0.7,59,0.00,,,0.00,WUHU216HW,2013-03-18 08:02:00,
2013-03-18 04:07:00,21.4,9.3,30.22,NNW,338,1.1,1.1,59,0.00,,,0.00,WUHU216HW,2013-03-18 08:07:00,
2013-03-18 04:12:00,21.2,9.9,30.23,NNW,338,0.7,1.1,61,0.00,,,0.00,WUHU216HW,2013-03-18 08:12:00,
2013-03-18 04:17:00,21.2,9.5,30.23,NNW,338,0.9,1.1,60,0.00,,,0.00,WUHU216HW,2013-03-18 08:17:00,
2013-03-18 04:22:00,21.1,9.7,30.22,NNW,338,0.7,1.1,61,0.00,,,0.00,WUHU216HW,2013-03-18 08:22:00,
2013-03-18 04:27:00,21.1,9.7,30.24,ENE,68,0.0,1.1,61,0.00,,,0.00,WUHU216HW,2013-03-18 08:27:00,
2013-03-18 04:32:00,20.9,9.6,30.24,ENE,68,0.0,1.1,61,0.00,,,0.00,WUHU216HW,2013-03-18 08:32:00,
2013-03-18 04:37:00,20.7,9.7,30.24,NE,45,0.0,0.9,62,0.00,,,0.00,WUHU216HW,2013-03-18 08:37:00,
2013-03-18 04:42:00,20.7,9.4,30.23,NNE,23,0.4,0.9,61,0.00,,,0.00,WUHU216HW,2013-03-18 08:42:00,
2013-03-18 04:47:00,21.1,10.4,30.23,NNE,23,0.2,1.3,63,0.00,,,0.00,WUHU216HW,2013-03-18 08:47:00,
2013-03-18 04:52:00,21.1,10.1,30.23,NNE,23,0.2,1.3,62,0.00,,,0.00,WUHU216HW,2013-03-18 08:52:00,
2013-03-18 04:57:00,21.2,10.5,30.22,NNW,338,0.9,1.1,63,0.00,,,0.00,WUHU216HW,2013-03-18 08:57:00,
2013-03-18 05:02:00,21.2,10.9,30.22,North,0,1.1,1.3,64,0.00,,,0.00,WUHU216HW,2013-03-18 09:02:00,
2013-03-18 05:07:00,21.2,10.5,30.22,North,0,0.0,1.3,63,0.00,,,0.00,WUHU216HW,2013-03-18 09:07:00,
2013-03-18 05:12:00,21.2,10.5,30.23,North,0,0.0,0.9,63,0.00,,,0.00,WUHU216HW,2013-03-18 09:12:00,
2013-03-18 05:17:00,21.2,10.5,30.23,North,0,0.4,0.9,63,0.00,,,0.00,WUHU216HW,2013-03-18 09:17:00,
2013-03-18 05:22:00,21.2,10.5,30.23,North,0,0.9,0.9,63,0.00,,,0.00,WUHU216HW,2013-03-18 09:22:00,
2013-03-18 05:27:00,21.2,10.9,30.24,ENE,68,0.9,1.1,64,0.00,,,0.00,WUHU216HW,2013-03-18 09:27:00,
2013-03-18 05:32:00,21.2,10.5,30.24,NNE,23,1.1,1.1,63,0.00,,,0.00,WUHU216HW,2013-03-18 09:32:00,
2013-03-18 05:37:00,21.2,10.9,30.25,NE,45,0.4,1.1,64,0.00,,,0.00,WUHU216HW,2013-03-18 09:37:00,
2013-03-18 05:42:00,21.6,10.5,30.25,NNE,23,1.1,2.9,62,0.00,,,0.00,WUHU216HW,2013-03-18 09:42:00,
2013-03-18 05:47:00,22.0,10.5,30.25,North,0,2.5,2.9,61,0.00,,,0.00,WUHU216HW,2013-03-18 09:47:00,
2013-03-18 05:52:00,22.0,10.5,30.25,NNE,23,0.7,2.5,61,0.00,,,0.00,WUHU216HW,2013-03-18 09:52:00,
2013-03-18 05:57:00,22.1,10.7,30.24,NNE,23,1.1,2.7,61,0.00,,,0.00,WUHU216HW,2013-03-18 09:57:00,
2013-03-18 06:02:00,22.0,10.5,30.25,North,0,1.1,2.7,61,0.00,,,0.00,WUHU216HW,2013-03-18 10:02:00,
2013-03-18 06:07:00,22.0,10.5,30.25,North,0,2.2,2.7,61,0.00,,,0.00,WUHU216HW,2013-03-18 10:07:00,
2013-03-18 06:12:00,22.0,10.5,30.25,NE,45,1.8,2.7,61,0.00,,,0.00,WUHU216HW,2013-03-18 10:12:00,
2013-03-18 06:17:00,22.0,10.5,30.25,North,0,0.4,2.5,61,0.00,,,0.00,WUHU216HW,2013-03-18 10:17:00,
2013-03-18 06:22:00,21.8,10.4,30.25,NE,45,1.1,2.5,61,0.00,,,0.00,WUHU216HW,2013-03-18 10:22:00,
2013-03-18 06:27:00,21.8,10.4,30.25,North,0,1.1,2.0,61,0.00,,,0.00,WUHU216HW,2013-03-18 10:27:00,
2013-03-18 06:32:00,21.6,10.2,30.25,North,0,0.9,2.0,61,0.00,,,0.00,WUHU216HW,2013-03-18 10:32:00,
2013-03-18 06:37:00,21.6,10.2,30.26,North,0,0.7,1.8,61,0.00,,,0.00,WUHU216HW,2013-03-18 10:37:00,
2013-03-18 06:42:00,21.6,10.2,30.27,ENE,68,2.2,2.2,61,0.00,,,0.00,WUHU216HW,2013-03-18 10:42:00,
2013-03-18 06:48:00,21.4,10.1,30.27,NNE,23,0.0,2.2,61,0.00,,,0.00,WUHU216HW,2013-03-18 10:48:00,
2013-03-18 06:53:00,21.2,9.9,30.27,NNE,23,0.2,1.3,61,0.00,,,0.00,WUHU216HW,2013-03-18 10:53:00,
2013-03-18 06:58:00,21.2,9.9,30.27,North,0,1.6,1.6,61,0.00,,,0.00,WUHU216HW,2013-03-18 10:58:00,
2013-03-18 07:03:00,21.2,10.5,30.27,North,0,0.9,1.6,63,0.00,,,0.00,WUHU216HW,2013-03-18 11:03:00,
2013-03-18 07:08:00,21.4,10.4,30.26,NNE,23,1.8,1.8,62,0.00,,,0.00,WUHU216HW,2013-03-18 11:08:00,
2013-03-18 07:13:00,21.6,10.5,30.26,North,0,0.7,1.8,62,0.00,,,0.00,WUHU216HW,2013-03-18 11:13:00,
2013-03-18 07:18:00,21.6,10.5,30.26,NE,45,1.1,2.0,62,0.00,,,0.00,WUHU216HW,2013-03-18 11:18:00,
2013-03-18 07:23:00,22.0,10.9,30.26,ENE,68,0.9,2.5,62,0.00,,,0.00,WUHU216HW,2013-03-18 11:23:00,
2013-03-18 07:28:00,22.0,10.5,30.27,North,0,1.1,3.1,61,0.00,,,0.00,WUHU216HW,2013-03-18 11:28:00,
2013-03-18 07:33:00,22.1,10.7,30.27,North,0,2.0,3.1,61,0.00,,,0.00,WUHU216HW,2013-03-18 11:33:00,
2013-03-18 07:38:00,22.3,10.9,30.28,East,90,1.8,2.5,61,0.00,,,0.00,WUHU216HW,2013-03-18 11:38:00,
2013-03-18 07:43:00,22.3,10.9,30.28,NNW,338,2.2,2.5,61,0.00,,,0.00,WUHU216HW,2013-03-18 11:43:00,
2013-03-18 07:48:00,22.7,10.8,30.28,NNE,23,2.0,2.2,60,0.00,,,0.00,WUHU216HW,2013-03-18 11:48:00,
2013-03-18 07:53:00,22.7,10.8,30.28,NNE,23,0.2,2.9,60,0.00,,,0.00,WUHU216HW,2013-03-18 11:53:00,
2013-03-18 07:58:00,22.9,11.3,30.28,NE,45,3.4,3.4,61,0.00,,,0.00,WUHU216HW,2013-03-18 11:58:00,
2013-03-18 08:03:00,23.0,11.2,30.28,North,0,1.8,3.4,60,0.00,,,0.00,WUHU216HW,2013-03-18 12:03:00,
2013-03-18 08:08:00,23.2,11.0,30.28,North,0,3.6,3.6,59,0.00,,,0.00,WUHU216HW,2013-03-18 12:08:00,
2013-03-18 08:13:00,23.2,11.0,30.28,NNE,23,2.5,3.6,59,0.00,,,0.00,WUHU216HW,2013-03-18 12:13:00,
2013-03-18 08:18:00,23.4,10.7,30.27,NNE,23,2.0,2.5,58,0.00,,,0.00,WUHU216HW,2013-03-18 12:18:00,
2013-03-18 08:23:00,23.4,11.2,30.28,NNE,23,2.5,2.5,59,0.00,,,0.00,WUHU216HW,2013-03-18 12:23:00,
2013-03-18 08:28:00,23.6,10.5,30.28,NNE,23,3.4,4.5,57,0.00,,,0.00,WUHU216HW,2013-03-18 12:28:00,
2013-03-18 08:33:00,23.8,10.7,30.27,ESE,113,3.8,4.5,57,0.00,,,0.00,WUHU216HW,2013-03-18 12:33:00,
2013-03-18 08:38:00,24.1,9.8,30.28,NNE,23,2.0,4.0,54,0.00,,,0.00,WUHU216HW,2013-03-18 12:38:00,
2013-03-18 08:44:00,24.1,10.2,30.28,NNE,23,1.1,4.0,55,0.00,,,0.00,WUHU216HW,2013-03-18 12:44:00,
2013-03-18 08:49:00,24.5,10.5,30.27,NNE,23,1.8,4.0,55,0.00,,,0.00,WUHU216HW,2013-03-18 12:49:00,
2013-03-18 08:54:00,24.8,10.9,30.29,East,90,3.4,3.4,55,0.00,,,0.00,WUHU216HW,2013-03-18 12:54:00,
2013-03-18 08:59:00,24.8,10.9,30.28,North,0,2.7,3.4,55,0.00,,,0.00,WUHU216HW,2013-03-18 12:59:00,
2013-03-18 09:04:00,24.7,9.5,30.28,NNE,23,1.8,2.7,52,0.00,,,0.00,WUHU216HW,2013-03-18 13:04:00,
2013-03-18 09:09:00,24.8,10.1,30.28,North,0,0.4,2.7,53,0.00,,,0.00,WUHU216HW,2013-03-18 13:09:00,
2013-03-18 09:14:00,25.0,9.8,30.28,SE,135,1.8,2.5,52,0.00,,,0.00,WUHU216HW,2013-03-18 13:14:00,
2013-03-18 09:19:00,25.2,9.2,30.28,NE,45,2.5,3.4,50,0.00,,,0.00,WUHU216HW,2013-03-18 13:19:00,
2013-03-18 09:24:00,25.4,9.3,30.28,NNW,338,1.1,3.4,50,0.00,,,0.00,WUHU216HW,2013-03-18 13:24:00,
2013-03-18 09:29:00,25.6,9.0,30.28,NW,315,3.8,4.9,49,0.00,,,0.00,WUHU216HW,2013-03-18 13:29:00,
2013-03-18 09:34:00,25.7,9.2,30.28,NNE,23,3.4,4.9,49,0.00,,,0.00,WUHU216HW,2013-03-18 13:34:00,
2013-03-18 09:39:00,26.1,10.0,30.28,North,0,1.3,3.4,50,0.00,,,0.00,WUHU216HW,2013-03-18 13:39:00,
2013-03-18 09:44:00,26.5,10.3,30.28,North,0,1.1,3.1,50,0.00,,,0.00,WUHU216HW,2013-03-18 13:44:00,
2013-03-18 09:49:00,26.8,11.1,30.28,ESE,113,1.1,2.5,51,0.00,,,0.00,WUHU216HW,2013-03-18 13:49:00,
2013-03-18 09:55:00,27.7,12.0,30.28,WSW,248,0.2,1.8,51,0.00,,,0.00,WUHU216HW,2013-03-18 13:55:00,
2013-03-18 10:00:00,28.3,11.1,30.28,NE,45,0.4,4.0,48,0.00,,,0.00,WUHU216HW,2013-03-18 14:00:00,
2013-03-18 10:05:00,27.7,10.5,30.27,ENE,68,1.8,4.0,48,0.00,,,0.00,WUHU216HW,2013-03-18 14:05:00,
2013-03-18 10:10:00,28.1,10.4,30.27,NW,315,1.8,3.4,47,0.00,,,0.00,WUHU216HW,2013-03-18 14:10:00,
2013-03-18 10:15:00,29.2,11.9,30.27,NNE,23,3.4,3.4,48,0.00,,,0.00,WUHU216HW,2013-03-18 14:15:00,
2013-03-18 10:20:00,30.4,13.5,30.27,SE,135,1.3,3.8,49,0.00,,,0.00,WUHU216HW,2013-03-18 14:20:00,
2013-03-18 10:25:00,30.4,11.0,30.27,ENE,68,3.6,4.0,44,0.00,,,0.00,WUHU216HW,2013-03-18 14:25:00,
2013-03-18 10:30:00,30.6,12.2,30.27,East,90,0.4,4.0,46,0.00,,,0.00,WUHU216HW,2013-03-18 14:30:00,
2013-03-18 10:35:00,31.7,12.2,30.27,ESE,113,2.5,3.1,44,0.00,,,0.00,WUHU216HW,2013-03-18 14:35:00,
2013-03-18 10:40:00,31.7,12.2,30.26,NNW,338,0.7,3.1,44,0.00,,,0.00,WUHU216HW,2013-03-18 14:40:00,
2013-03-18 10:45:00,31.5,11.4,30.27,ESE,113,1.6,2.7,43,0.00,,,0.00,WUHU216HW,2013-03-18 14:45:00,
2013-03-18 10:50:00,31.1,10.2,30.26,NE,45,3.6,4.3,41,0.00,,,0.00,WUHU216HW,2013-03-18 14:50:00,
2013-03-18 10:55:00,30.8,9.3,30.26,NE,45,1.8,4.3,40,0.00,,,0.00,WUHU216HW,2013-03-18 14:55:00,
2013-03-18 11:00:00,31.0,9.5,30.26,SE,135,2.5,4.3,40,0.00,,,0.00,WUHU216HW,2013-03-18 15:00:00,
2013-03-18 11:05:00,31.3,10.8,30.26,SE,135,2.5,3.6,42,0.00,,,0.00,WUHU216HW,2013-03-18 15:05:00,
2013-03-18 11:10:00,32.4,11.8,30.26,NE,45,1.6,3.6,42,0.00,,,0.00,WUHU216HW,2013-03-18 15:10:00,
2013-03-18 11:15:00,32.6,11.4,30.26,SSE,158,2.9,5.1,41,0.00,,,0.00,WUHU216HW,2013-03-18 15:15:00,
2013-03-18 11:20:00,33.1,11.4,30.25,NE,45,4.0,5.1,40,0.00,,,0.00,WUHU216HW,2013-03-18 15:20:00,
2013-03-18 11:25:00,33.3,12.6,30.25,SE,135,1.6,4.0,42,0.00,,,0.00,WUHU216HW,2013-03-18 15:25:00,
2013-03-18 11:30:00,34.0,13.8,30.25,SE,135,1.8,6.9,43,0.00,,,0.00,WUHU216HW,2013-03-18 15:30:00,
2013-03-18 11:35:00,34.7,14.4,30.25,SSW,203,1.8,6.9,43,0.00,,,0.00,WUHU216HW,2013-03-18 15:35:00,
2013-03-18 11:40:00,34.2,11.2,30.25,NNE,23,2.5,4.0,38,0.00,,,0.00,WUHU216HW,2013-03-18 15:40:00,
2013-03-18 11:45:00,33.5,11.7,30.25,SSE,158,2.2,4.0,40,0.00,,,0.00,WUHU216HW,2013-03-18 15:45:00,
2013-03-18 11:50:00,33.8,12.6,30.25,SE,135,2.0,4.0,41,0.00,,,0.00,WUHU216HW,2013-03-18 15:50:00,
2013-03-18 11:55:00,34.9,14.0,30.25,East,90,2.7,4.0,42,0.00,,,0.00,WUHU216HW,2013-03-18 15:55:00,
2013-03-18 12:00:00,35.6,14.8,30.25,SE,135,2.0,4.0,42,0.00,,,0.00,WUHU216HW,2013-03-18 16:00:00,
2013-03-18 12:05:00,36.0,14.1,30.25,ENE,68,1.8,3.6,40,0.00,,,0.00,WUHU216HW,2013-03-18 16:05:00,
2013-03-18 12:10:00,35.8,14.4,30.25,SSE,158,5.4,5.4,41,0.00,,,0.00,WUHU216HW,2013-03-18 16:10:00,
2013-03-18 12:15:00,36.2,15.2,30.25,SE,135,1.3,5.4,42,0.00,,,0.00,WUHU216HW,2013-03-18 16:15:00,
2013-03-18 12:20:00,36.7,15.2,30.25,ESE,113,3.1,3.4,41,0.00,,,0.00,WUHU216HW,2013-03-18 16:20:00,
2013-03-18 12:25:00,36.7,15.2,30.25,ESE,113,2.5,4.7,41,0.00,,,0.00,WUHU216HW,2013-03-18 16:25:00,
2013-03-18 12:30:00,37.1,15.5,30.25,SE,135,1.8,4.9,41,0.00,,,0.00,WUHU216HW,2013-03-18 16:30:00,
2013-03-18 12:36:00,37.3,15.7,30.25,South,180,2.7,4.9,41,0.00,,,0.00,WUHU216HW,2013-03-18 16:36:00,
2013-03-18 12:41:00,37.1,14.9,30.25,SE,135,4.3,4.7,40,0.00,,,0.00,WUHU216HW,2013-03-18 16:41:00,
2013-03-18 12:46:00,37.1,16.0,30.25,SE,135,2.5,5.8,42,0.00,,,0.00,WUHU216HW,2013-03-18 16:46:00,
2013-03-18 12:51:00,36.7,14.7,30.25,SE,135,1.8,4.7,40,0.00,,,0.00,WUHU216HW,2013-03-18 16:51:00,
2013-03-18 12:56:00,36.9,15.8,30.25,ESE,113,2.2,4.0,42,0.00,,,0.00,WUHU216HW,2013-03-18 16:56:00,
2013-03-18 13:02:00,36.9,15.8,30.25,SSE,158,1.1,6.0,42,0.00,,,0.00,WUHU216HW,2013-03-18 17:02:00,
2013-03-18 13:07:00,37.1,14.9,30.24,NE,45,1.8,6.0,40,0.00,,,0.00,WUHU216HW,2013-03-18 17:07:00,
2013-03-18 13:12:00,37.3,16.8,30.24,SE,135,2.7,2.7,43,0.00,,,0.00,WUHU216HW,2013-03-18 17:12:00,
2013-03-18 13:17:00,37.3,16.2,30.24,South,180,1.8,2.7,42,0.00,,,0.00,WUHU216HW,2013-03-18 17:17:00,
2013-03-18 13:22:00,37.4,15.9,30.23,ENE,68,1.1,2.7,41,0.00,,,0.00,WUHU216HW,2013-03-18 17:22:00,
2013-03-18 13:27:00,36.7,15.7,30.23,SSE,158,2.7,6.7,42,0.00,,,0.00,WUHU216HW,2013-03-18 17:27:00,
2013-03-18 13:32:00,36.5,15.6,30.22,South,180,2.5,6.7,42,0.00,,,0.00,WUHU216HW,2013-03-18 17:32:00,
2013-03-18 13:37:00,36.4,13.7,30.21,NNE,23,3.8,3.8,39,0.00,,,0.00,WUHU216HW,2013-03-18 17:37:00,
2013-03-18 13:42:00,35.8,14.4,30.20,SSE,158,1.8,3.8,41,0.00,,,0.00,WUHU216HW,2013-03-18 17:42:00,
2013-03-18 13:47:00,36.0,14.5,30.20,East,90,1.1,2.5,41,0.00,,,0.00,WUHU216HW,2013-03-18 17:47:00,
2013-03-18 13:52:00,36.0,14.5,30.20,East,90,2.2,3.4,41,0.00,,,0.00,WUHU216HW,2013-03-18 17:52:00,
2013-03-18 13:57:00,35.6,14.2,30.20,NNE,23,4.0,4.0,41,0.00,,,0.00,WUHU216HW,2013-03-18 17:57:00,
2013-03-18 14:02:00,34.9,14.0,30.19,NE,45,3.1,5.1,42,0.00,,,0.00,WUHU216HW,2013-03-18 18:02:00,
2013-03-18 14:07:00,34.6,13.8,30.19,NNW,338,4.5,5.1,42,0.00,,,0.00,WUHU216HW,2013-03-18 18:07:00,
2013-03-18 14:12:00,34.2,13.4,30.18,NE,45,2.9,4.5,42,0.00,,,0.00,WUHU216HW,2013-03-18 18:12:00,
2013-03-18 14:17:00,34.2,14.0,30.17,NNE,23,2.9,4.0,43,0.00,,,0.00,WUHU216HW,2013-03-18 18:17:00,
2013-03-18 14:22:00,34.4,14.0,30.18,SSE,158,2.2,4.0,43,0.00,,,0.00,WUHU216HW,2013-03-18 18:22:00,
2013-03-18 14:27:00,34.4,14.6,30.18,SE,135,1.3,4.0,44,0.00,,,0.00,WUHU216HW,2013-03-18 18:27:00,
2013-03-18 14:32:00,34.2,14.4,30.18,NE,45,3.4,4.0,44,0.00,,,0.00,WUHU216HW,2013-03-18 18:32:00,
2013-03-18 14:37:00,34.0,13.8,30.18,NNE,23,3.4,3.4,43,0.00,,,0.00,WUHU216HW,2013-03-18 18:37:00,
2013-03-18 14:42:00,33.8,14.0,30.17,ESE,113,2.0,4.0,44,0.00,,,0.00,WUHU216HW,2013-03-18 18:42:00,
2013-03-18 14:47:00,33.7,14.0,30.17,East,90,4.7,4.7,44,0.00,,,0.00,WUHU216HW,2013-03-18 18:47:00,
2013-03-18 14:52:00,33.8,14.6,30.17,East,90,2.7,4.7,45,0.00,,,0.00,WUHU216HW,2013-03-18 18:52:00,
2013-03-18 14:57:00,33.7,14.4,30.17,NE,45,2.7,3.8,45,0.00,,,0.00,WUHU216HW,2013-03-18 18:57:00,
2013-03-18 15:02:00,33.5,13.8,30.16,NE,45,3.4,5.1,44,0.00,,,0.00,WUHU216HW,2013-03-18 19:02:00,
2013-03-18 15:07:00,34.2,15.4,30.16,ENE,68,2.5,5.1,46,0.00,,,0.00,WUHU216HW,2013-03-18 19:07:00,
2013-03-18 15:12:00,34.0,14.2,30.15,North,0,5.4,5.4,44,0.00,,,0.00,WUHU216HW,2013-03-18 19:12:00,
2013-03-18 15:17:00,33.5,13.8,30.15,NNE,23,2.5,5.4,44,0.00,,,0.00,WUHU216HW,2013-03-18 19:17:00,
2013-03-18 15:22:00,32.8,13.6,30.15,NNE,23,3.4,4.7,45,0.00,,,0.00,WUHU216HW,2013-03-18 19:22:00,
2013-03-18 15:27:00,33.1,14.4,30.15,NE,45,3.1,4.7,46,0.00,,,0.00,WUHU216HW,2013-03-18 19:27:00,
2013-03-18 15:32:00,33.1,14.4,30.15,NNE,23,3.4,4.7,46,0.00,,,0.00,WUHU216HW,2013-03-18 19:32:00,
2013-03-18 15:37:00,32.9,14.8,30.15,NNE,23,2.0,4.5,47,0.00,,,0.00,WUHU216HW,2013-03-18 19:37:00,
2013-03-18 15:42:00,32.8,14.6,30.15,East,90,2.9,4.7,47,0.00,,,0.00,WUHU216HW,2013-03-18 19:42:00,
2013-03-18 15:47:00,32.4,14.3,30.15,ESE,113,5.4,5.4,47,0.00,,,0.00,WUHU216HW,2013-03-18 19:47:00,
2013-03-18 15:52:00,32.4,14.3,30.15,NE,45,4.7,5.4,47,0.00,,,0.00,WUHU216HW,2013-03-18 19:52:00,
2013-03-18 15:57:00,32.6,14.9,30.15,ESE,113,2.7,4.7,48,0.00,,,0.00,WUHU216HW,2013-03-18 19:57:00,
2013-03-18 16:02:00,32.8,15.1,30.15,SE,135,2.9,4.7,48,0.00,,,0.00,WUHU216HW,2013-03-18 20:02:00,
2013-03-18 16:07:00,32.4,14.3,30.14,East,90,1.8,4.7,47,0.00,,,0.00,WUHU216HW,2013-03-18 20:07:00,
2013-03-18 16:12:00,32.2,15.1,30.14,ENE,68,2.5,5.4,49,0.00,,,0.00,WUHU216HW,2013-03-18 20:12:00,
2013-03-18 16:17:00,32.2,15.1,30.14,ENE,68,3.4,5.4,49,0.00,,,0.00,WUHU216HW,2013-03-18 20:17:00,
2013-03-18 16:22:00,32.2,15.1,30.14,NNE,23,1.8,4.0,49,0.00,,,0.00,WUHU216HW,2013-03-18 20:22:00,
2013-03-18 16:27:00,32.0,14.9,30.15,ENE,68,2.0,4.3,49,0.00,,,0.00,WUHU216HW,2013-03-18 20:27:00,
2013-03-18 16:32:00,31.9,14.9,30.15,ESE,113,0.9,4.3,49,0.00,,,0.00,WUHU216HW,2013-03-18 20:32:00,
2013-03-18 16:37:00,31.9,15.3,30.15,NE,45,1.1,5.6,50,0.00,,,0.00,WUHU216HW,2013-03-18 20:37:00,
2013-03-18 16:42:00,31.9,15.3,30.14,South,180,3.1,5.6,50,0.00,,,0.00,WUHU216HW,2013-03-18 20:42:00,
2013-03-18 16:47:00,31.5,15.0,30.14,NE,45,3.8,3.8,50,0.00,,,0.00,WUHU216HW,2013-03-18 20:47:00,
2013-03-18 16:52:00,31.3,15.3,30.13,NNE,23,1.8,3.8,51,0.00,,,0.00,WUHU216HW,2013-03-18 20:52:00,
2013-03-18 16:57:00,31.3,15.3,30.12,ENE,68,4.7,4.7,51,0.00,,,0.00,WUHU216HW,2013-03-18 20:57:00,
2013-03-18 17:02:00,31.3,15.3,30.13,NE,45,4.9,5.4,51,0.00,,,0.00,WUHU216HW,2013-03-18 21:02:00,
2013-03-18 17:07:00,31.3,15.3,30.12,NNE,23,2.9,5.4,51,0.00,,,0.00,WUHU216HW,2013-03-18 21:07:00,
2013-03-18 17:12:00,31.1,15.5,30.12,ESE,113,4.7,6.0,52,0.00,,,0.00,WUHU216HW,2013-03-18 21:12:00,
2013-03-18 17:18:00,31.1,15.5,30.11,SE,135,2.5,5.6,52,0.00,,,0.00,WUHU216HW,2013-03-18 21:18:00,
2013-03-18 17:23:00,31.3,15.7,30.11,ESE,113,3.6,4.0,52,0.00,,,0.00,WUHU216HW,2013-03-18 21:23:00,
2013-03-18 17:28:00,31.1,15.5,30.11,NE,45,5.4,6.9,52,0.00,,,0.00,WUHU216HW,2013-03-18 21:28:00,
2013-03-18 17:33:00,31.0,15.4,30.11,NE,45,4.0,6.9,52,0.00,,,0.00,WUHU216HW,2013-03-18 21:33:00,
2013-03-18 17:38:00,30.6,15.5,30.11,NE,45,4.9,4.9,53,0.00,,,0.00,WUHU216HW,2013-03-18 21:38:00,
2013-03-18 17:43:00,30.6,15.5,30.11,East,90,2.0,6.0,53,0.00,,,0.00,WUHU216HW,2013-03-18 21:43:00,
2013-03-18 17:48:00,30.8,16.0,30.11,East,90,5.6,6.0,54,0.00,,,0.00,WUHU216HW,2013-03-18 21:48:00,
2013-03-18 17:53:00,30.8,16.5,30.11,NNE,23,3.6,5.6,55,0.00,,,0.00,WUHU216HW,2013-03-18 21:53:00,
2013-03-18 17:58:00,30.6,16.3,30.11,East,90,2.0,5.8,55,0.00,,,0.00,WUHU216HW,2013-03-18 21:58:00,
2013-03-18 18:03:00,30.6,16.3,30.11,ENE,68,1.1,5.8,55,0.00,,,0.00,WUHU216HW,2013-03-18 22:03:00,
2013-03-18 18:08:00,30.6,16.7,30.11,SE,135,4.9,4.9,56,0.00,,,0.00,WUHU216HW,2013-03-18 22:08:00,
2013-03-18 18:13:00,30.6,17.6,30.11,SE,135,4.0,4.9,58,0.00,,,0.00,WUHU216HW,2013-03-18 22:13:00,
2013-03-18 18:18:00,30.4,17.4,30.10,ENE,68,2.2,4.9,58,0.00,,,0.00,WUHU216HW,2013-03-18 22:18:00,
2013-03-18 18:23:00,30.4,18.2,30.09,East,90,4.0,4.0,60,0.00,,,0.00,WUHU216HW,2013-03-18 22:23:00,
2013-03-18 18:28:00,30.4,18.9,30.09,ENE,68,1.3,7.6,62,0.00,,,0.00,WUHU216HW,2013-03-18 22:28:00,
2013-03-18 18:33:00,30.2,18.7,30.09,South,180,2.5,7.6,62,0.00,,,0.00,WUHU216HW,2013-03-18 22:33:00,
2013-03-18 18:38:00,30.2,19.4,30.09,NE,45,3.8,8.3,64,0.00,,,0.00,WUHU216HW,2013-03-18 22:38:00,
2013-03-18 18:43:00,30.1,20.3,30.08,NNE,23,4.3,8.3,67,0.00,,,0.00,WUHU216HW,2013-03-18 22:43:00,
2013-03-18 18:48:00,29.5,21.0,30.08,ENE,68,6.3,8.9,70,0.00,,,0.00,WUHU216HW,2013-03-18 22:48:00,
2013-03-18 18:53:00,29.2,20.6,30.09,NE,45,7.8,8.9,70,0.00,,,0.00,WUHU216HW,2013-03-18 22:53:00,
2013-03-18 18:58:00,29.2,21.9,30.08,ENE,68,5.4,8.1,74,0.00,,,0.00,WUHU216HW,2013-03-18 22:58:00,
2013-03-18 19:03:00,29.2,22.2,30.07,NNE,23,2.2,8.1,75,0.00,,,0.00,WUHU216HW,2013-03-18 23:03:00,
2013-03-18 19:08:00,29.0,22.3,30.07,SE,135,8.1,8.1,76,0.00,,,0.00,WUHU216HW,2013-03-18 23:08:00,
2013-03-18 19:13:00,29.0,23.0,30.07,SE,135,4.9,8.1,78,0.00,,,0.00,WUHU216HW,2013-03-18 23:13:00,
2013-03-18 19:18:00,29.0,23.6,30.07,NNE,23,4.3,6.9,80,0.00,,,0.00,WUHU216HW,2013-03-18 23:18:00,
2013-03-18 19:23:00,29.0,24.5,30.07,SE,135,2.7,8.1,83,0.00,,,0.00,WUHU216HW,2013-03-18 23:23:00,
2013-03-18 19:29:00,28.8,24.8,30.07,NE,45,5.8,8.1,85,0.00,,,0.00,WUHU216HW,2013-03-18 23:29:00,
2013-03-18 19:34:00,28.8,25.1,30.07,ENE,68,2.9,6.7,86,0.00,,,0.00,WUHU216HW,2013-03-18 23:34:00,
2013-03-18 19:39:00,28.6,25.2,30.07,ESE,113,2.7,7.8,87,0.00,,,0.00,WUHU216HW,2013-03-18 23:39:00,
2013-03-18 19:44:00,28.4,25.0,30.07,NW,315,1.3,8.1,87,0.00,,,0.00,WUHU216HW,2013-03-18 23:44:00,
2013-03-18 19:49:00,28.4,25.4,30.07,ENE,68,3.6,8.1,88,0.00,,,0.00,WUHU216HW,2013-03-18 23:49:00,
2013-03-18 19:54:00,28.4,25.4,30.07,ENE,68,3.4,8.1,88,0.00,,,0.00,WUHU216HW,2013-03-18 23:54:00,
2013-03-18 19:59:00,28.4,25.7,30.06,East,90,3.4,4.5,89,0.00,,,0.00,WUHU216HW,2013-03-18 23:59:00,
2013-03-18 20:04:00,28.4,25.4,30.06,NNE,23,4.3,4.5,88,0.00,,,0.00,WUHU216HW,2013-03-19 00:04:00,
2013-03-18 20:09:00,28.6,26.1,30.06,East,90,2.9,9.8,90,0.00,,,0.00,WUHU216HW,2013-03-19 00:09:00,
2013-03-18 20:14:00,28.6,26.1,30.06,NNE,23,2.7,9.8,90,0.00,,,0.00,WUHU216HW,2013-03-19 00:14:00,
2013-03-18 20:19:00,28.6,26.1,30.06,NNW,338,2.7,5.6,90,0.00,,,0.00,WUHU216HW,2013-03-19 00:19:00,
2013-03-18 20:24:00,28.6,26.4,30.05,NNE,23,4.9,7.2,91,0.00,,,0.00,WUHU216HW,2013-03-19 00:24:00,
2013-03-18 20:29:00,28.8,26.6,30.05,NE,45,1.8,7.2,91,0.00,,,0.00,WUHU216HW,2013-03-19 00:29:00,
2013-03-18 20:34:00,28.8,26.6,30.05,North,0,2.5,7.6,91,0.00,,,0.00,WUHU216HW,2013-03-19 00:34:00,
2013-03-18 20:39:00,28.8,26.6,30.05,East,90,4.9,7.6,91,0.00,,,0.00,WUHU216HW,2013-03-19 00:39:00,
2013-03-18 20:44:00,28.8,26.6,30.05,East,90,4.0,8.1,91,0.00,,,0.00,WUHU216HW,2013-03-19 00:44:00,
2013-03-18 20:49:00,28.8,26.6,30.04,ESE,113,2.9,8.1,91,0.00,,,0.00,WUHU216HW,2013-03-19 00:49:00,
2013-03-18 20:54:00,29.0,26.7,30.04,ENE,68,4.7,6.9,91,0.00,,,0.00,WUHU216HW,2013-03-19 00:54:00,
2013-03-18 20:59:00,29.0,26.7,30.03,ENE,68,3.1,6.9,91,0.00,,,0.00,WUHU216HW,2013-03-19 00:59:00,
2013-03-18 21:04:00,29.0,26.7,30.03,East,90,5.6,5.6,91,0.00,,,0.00,WUHU216HW,2013-03-19 01:04:00,
2013-03-18 21:09:00,29.2,26.9,30.03,NE,45,3.6,5.6,91,0.00,,,0.00,WUHU216HW,2013-03-19 01:09:00,
2013-03-18 21:14:00,29.2,26.9,30.03,NNE,23,2.9,6.9,91,0.00,,,0.00,WUHU216HW,2013-03-19 01:14:00,
2013-03-18 21:19:00,29.2,26.9,30.02,SSE,158,3.6,6.9,91,0.00,,,0.00,WUHU216HW,2013-03-19 01:19:00,
2013-03-18 21:24:00,29.2,27.2,30.02,ENE,68,2.5,5.8,92,0.00,,,0.00,WUHU216HW,2013-03-19 01:24:00,
2013-03-18 21:29:00,29.2,27.2,30.01,NNE,23,4.7,5.8,92,0.00,,,0.00,WUHU216HW,2013-03-19 01:29:00,
2013-03-18 21:34:00,29.2,27.2,30.01,ENE,68,5.4,5.8,92,0.00,,,0.00,WUHU216HW,2013-03-19 01:34:00,
2013-03-18 21:39:00,29.2,27.2,30.00,ESE,113,2.7,5.4,92,0.00,,,0.00,WUHU216HW,2013-03-19 01:39:00,
2013-03-18 21:44:00,29.2,27.2,30.00,ESE,113,3.1,5.4,92,0.00,,,0.00,WUHU216HW,2013-03-19 01:44:00,
2013-03-18 21:49:00,29.2,27.2,30.01,ENE,68,4.9,5.4,92,0.00,,,0.00,WUHU216HW,2013-03-19 01:49:00,
2013-03-18 21:54:00,29.2,27.2,30.00,East,90,4.5,5.4,92,0.00,,,0.00,WUHU216HW,2013-03-19 01:54:00,
2013-03-18 21:59:00,29.2,27.2,30.00,East,90,2.5,8.3,92,0.00,,,0.00,WUHU216HW,2013-03-19 01:59:00,
2013-03-18 22:04:00,29.2,27.2,30.00,NE,45,3.1,8.3,92,0.00,,,0.00,WUHU216HW,2013-03-19 02:04:00,
2013-03-18 22:09:00,29.2,27.2,30.00,NE,45,5.4,5.8,92,0.00,,,0.00,WUHU216HW,2013-03-19 02:09:00,
2013-03-18 22:14:00,29.2,27.2,30.00,NE,45,2.2,5.8,92,0.00,,,0.00,WUHU216HW,2013-03-19 02:14:00,
2013-03-18 22:20:00,29.2,27.2,29.99,NNE,23,1.8,3.8,92,0.00,,,0.00,WUHU216HW,2013-03-19 02:20:00,
2013-03-18 22:25:00,29.2,27.2,29.99,North,0,2.2,8.9,92,0.00,,,0.00,WUHU216HW,2013-03-19 02:25:00,
2013-03-18 22:30:00,29.2,27.2,29.99,NNE,23,3.4,8.9,92,0.00,,,0.00,WUHU216HW,2013-03-19 02:30:00,
2013-03-18 22:35:00,29.2,27.2,29.99,NNE,23,5.6,5.6,92,0.00,,,0.00,WUHU216HW,2013-03-19 02:35:00,
2013-03-18 22:40:00,29.2,27.2,29.98,NNE,23,3.8,6.5,92,0.00,,,0.00,WUHU216HW,2013-03-19 02:40:00,
2013-03-18 22:45:00,29.2,27.2,29.98,West,270,2.9,6.5,92,0.00,,,0.00,WUHU216HW,2013-03-19 02:45:00,
2013-03-18 22:50:00,29.2,27.2,29.98,NE,45,5.6,5.8,92,0.00,,,0.00,WUHU216HW,2013-03-19 02:50:00,
2013-03-18 22:55:00,29.2,27.2,29.98,NE,45,2.0,5.8,92,0.00,,,0.00,WUHU216HW,2013-03-19 02:55:00,
2013-03-18 23:00:00,29.3,27.4,29.97,East,90,2.7,3.6,92,0.00,,,0.00,WUHU216HW,2013-03-19 03:00:00,
2013-03-18 23:05:00,29.3,27.4,29.97,NNE,23,2.7,5.4,92,0.00,,,0.00,WUHU216HW,2013-03-19 03:05:00,
2013-03-18 23:10:00,29.3,27.4,29.97,NNE,23,3.4,5.4,92,0.00,,,0.00,WUHU216HW,2013-03-19 03:10:00,
2013-03-18 23:16:00,29.3,27.4,29.96,ESE,113,5.4,5.4,92,0.00,,,0.00,WUHU216HW,2013-03-19 03:16:00,
2013-03-18 23:21:00,29.5,27.6,29.96,NE,45,1.1,6.9,92,0.00,,,0.00,WUHU216HW,2013-03-19 03:21:00,
2013-03-18 23:26:00,29.5,27.6,29.96,NE,45,2.5,5.1,92,0.00,,,0.00,WUHU216HW,2013-03-19 03:26:00,
2013-03-18 23:31:00,29.5,27.6,29.95,North,0,4.7,4.9,92,0.00,,,0.00,WUHU216HW,2013-03-19 03:31:00,
2013-03-18 23:36:00,29.5,27.6,29.95,NNE,23,6.0,6.0,92,0.00,,,0.00,WUHU216HW,2013-03-19 03:36:00,
2013-03-18 23:41:00,29.5,27.7,29.95,NNW,338,6.9,6.9,93,0.00,,,0.00,WUHU216HW,2013-03-19 03:41:00,
2013-03-18 23:46:00,29.5,27.7,29.94,East,90,2.0,6.9,93,0.00,,,0.00,WUHU216HW,2013-03-19 03:46:00,
2013-03-18 23:51:00,29.5,27.7,29.94,North,0,4.0,4.0,93,0.00,,,0.00,WUHU216HW,2013-03-19 03:51:00,
2013-03-18 23:56:00,29.5,27.7,29.94,NE,45,3.1,4.7,93,0.00,,,0.00,WUHU216HW,2013-03-19 03:56:00,